Location: Civry
(47.2902°N, 4.6156°E)
Time: 09:29:42
(UTC+00:00)

SL-08 RB Rocket - Pass Details

Date: 09 April 2020
Orbit: 646 x 684 km, 97.8° (Epoch: 24 May)

Event Time Altitude Azimuth Distance (km) Brightness Sun altitude
Exits shadow 18:56:20 - 147° (SSE) 2,922 6.5 -6.3°
Reaches altitude 10° 18:58:26 10° 142° (SE) 2,088 5.8 -6.6°
Maximum altitude 19:02:46 45° 70° (ENE) 915 4.1 -7.3°
Drops below altitude 10° 19:07:12 10° 358° (N) 2,125 6.6 -8.0°
Sets 19:09:31 0° 353° (N) 3,049 7.5 -8.4°
